#timestamp,LO_Frequency,Hit,StdDev 
1613408415.7,286047015.0,Y
1613408435.6,286047008.0,P
1613408455.4,286047008.0,P
1613408475.3,286047000.8,N
1613408495.1,286046995.0,N
1613408496.0,286046995.0,N
1613408515.8,286047002.7,N
1613408535.7,286046998.1,N
1613408555.5,286047009.5,N
1613408575.3,286047016.3,N
1613408595.2,286047019.4,N
1613408615.0,286047025.1,Y
1613408615.9,286047025.1,P
1613408635.8,286047021.1,N
1613408655.6,286047014.3,N
1613408675.4,286047011.2,N
1613408695.3,286047014.9,N
1613408715.1,286047018.3,N
1613408735.8,286047015.2,N
1613408755.7,286047013.4,N
1613408775.5,286047004.0,N
1613408795.4,286047010.3,N
1613408815.2,286047005.6,N
1613408835.0,286046998.5,N
1613408835.9,286046998.5,N
1613408855.8,286046998.6,N
1613408875.6,286047004.2,N
1613408895.4,286047009.5,N
1613408915.3,286047018.5,N
1613408935.1,286047020.5,N
1613408955.9,286047022.2,N
1613408975.7,286047023.3,N
1613408995.5,286047022.8,N
1613409015.4,286047028.9,Y
1613409035.2,286047017.7,P
1613409055.0,286047022.0,P
1613409056.0,286047022.0,P
1613409075.8,286047016.0,Y
1613409095.6,286046996.8,P
1613409115.5,286047008.1,N
1613409135.3,286047011.0,N
1613409155.1,286047013.5,N
1613409175.9,286047016.7,N
1613409195.7,286047008.3,N
1613409215.6,286047015.4,N
1613409235.4,286047019.3,N
1613409255.2,286047021.2,Y
1613409275.1,286047004.2,P
1613409276.0,286047004.2,N
1613409295.8,286046999.1,N
1613409315.6,286047010.3,N
1613409335.5,286047018.5,Y
1613409355.3,286047017.0,P
1613409375.2,286047017.6,P
1613409395.9,286047011.2,N
1613409415.7,286047010.6,N
1613409435.6,286047012.8,N
1613409455.4,286047004.0,N
1613409475.2,286046999.1,N
1613409495.1,286046999.0,N
1613409496.0,286046999.0,N
1613409515.8,286047005.5,N
1613409535.7,286047001.5,N
1613409555.5,286046994.7,N
1613409575.3,286046993.5,N
1613409595.2,286046993.2,N
1613409615.0,286046988.8,N
1613409615.9,286046988.8,N
1613409635.7,286046987.2,N
1613409655.6,286046987.1,N
1613409675.4,286046995.5,N
1613409695.3,286047001.0,N
1613409715.1,286046996.6,N
1613409735.8,286046996.4,N
1613409755.7,286047002.9,N
1613409775.5,286047010.0,N
1613409795.4,286047022.0,N
1613409815.2,286047021.7,N
1613409835.0,286047029.8,N
1613409835.9,286047029.8,N
1613409855.8,286047025.5,N
1613409875.6,286047022.9,N
1613409895.5,286047029.9,N
1613409915.3,286047014.4,N
1613409935.1,286047000.1,N
1613409955.9,286046988.7,N
1613409975.7,286046983.2,N
1613409995.6,286046977.7,N
1613410015.4,286046966.6,N
1613410035.2,286046956.1,N
1613410055.1,286046946.8,N
1613410056.0,286046946.8,N
1613410075.8,286046935.1,N
1613410095.6,286046921.5,Y
1613410115.5,286046919.8,P
1613410135.3,286046915.9,N
1613410155.2,286046913.2,N
1613410175.9,286046906.4,N
1613410195.7,286046901.6,Y
1613410215.6,286046962.2,P
1613410235.4,286046954.9,N
1613410255.2,286046954.5,P
1613410275.1,286046957.8,Y
1613410276.0,286046957.8,P
1613410295.8,286047006.6,N
1613410315.7,286047016.0,N
1613410335.5,286047030.7,N
1613410355.3,286047047.4,N
1613410375.2,286047059.4,N
1613410395.0,286047071.4,N
1613410395.9,286047071.4,N
1613410415.8,286047068.9,N
1613410435.6,286047067.3,N
1613410455.4,286047074.2,N
1613410475.3,286047080.3,N
1613410495.1,286047088.9,N
1613410515.8,286047092.2,N
1613410535.7,286047091.8,N
1613410555.5,286047096.6,N
1613410575.4,286047094.8,N
1613410595.2,286047099.8,N
1613410615.0,286047103.4,N
1613410615.9,286047103.4,N
1613410635.8,286047108.2,N
1613410655.6,286047112.3,N
1613410675.4,286047118.3,N
1613410695.3,286047125.0,N
1613410715.1,286047129.2,N
1613410735.9,286047133.3,N
1613410755.7,286047133.8,N
1613410775.5,286047134.4,N
1613410795.4,286047137.5,N
1613410815.2,286047139.0,N
1613410835.0,286047139.4,Y
1613410835.9,286047139.4,P
1613410855.8,286047055.4,N
1613410875.6,286047045.4,N
1613410895.5,286047042.0,N
1613410915.3,286047044.0,N
1613410935.1,286047039.7,N
1613410955.9,286047034.3,N
1613410975.7,286047030.8,N
1613410995.5,286047029.2,N
1613411015.4,286047030.1,N
1613411035.2,286047031.0,N
1613411055.1,286047034.4,N
1613411056.0,286047034.4,N
1613411075.8,286047030.8,N
1613411095.6,286047022.9,N
1613411115.5,286047029.9,N
1613411135.3,286047033.1,N
1613411155.1,286047032.4,N
1613411175.9,286047039.2,N
1613411195.7,286047047.5,N
1613411215.6,286047056.7,N
1613411235.4,286047058.0,N
1613411255.2,286047060.0,N
1613411275.1,286047054.7,N
1613411276.0,286047054.7,N
1613411295.8,286047054.5,N
1613411315.6,286047057.6,N
1613411335.5,286047060.6,N
1613411355.3,286047060.0,N
1613411375.2,286047062.9,N
1613411395.9,286047068.3,Y
1613411415.7,286047024.8,P
1613411435.6,286047029.6,N
1613411455.4,286047027.7,N
1613411475.3,286047030.6,Y
1613411495.1,286046997.1,P
1613411496.0,286046997.1,N
1613411515.8,286046996.5,N
1613411535.7,286046998.8,N
1613411555.5,286046999.6,N
1613411575.4,286046997.1,N
1613411595.2,286046994.5,N
1613411615.0,286046991.6,N
1613411615.9,286046991.6,N
1613411635.8,286046987.7,N
1613411655.6,286046986.2,N
1613411675.4,286046986.7,N
1613411695.3,286046990.1,N
1613411715.1,286046994.4,N
1613411735.9,286046997.6,N
1613411755.7,286046999.0,N
1613411775.5,286047002.5,N
1613411795.4,286047002.9,N
1613411815.2,286047002.3,N
1613411835.0,286047000.4,N
1613411835.9,286047000.4,N
1613411855.8,286047001.2,N
1613411875.6,286046995.3,N
1613411895.5,286046992.4,N
1613411915.3,286046992.1,N
1613411935.1,286046992.7,N
1613411955.9,286046994.1,N
1613411975.7,286046996.6,N
1613411995.5,286046994.8,N
